User: anonymous   Login
Location: Dayton
(39.7590°N, 84.1920°W)
Time: 23:39:31
(UTC-04:00)
Language:

Cosmos 1939 Rocket - Orbit

View from above orbital plane
View from above orbital plane
View from above satellite
View from above satellite

Ground track
Ground track

The orbit data is extracted from the following two-line orbital elements,

1 19046U 88032B   16180.20306737  .00000227  00000-0  21653-4 0  9997
2 19046  97.5838 230.2422 0041407  98.2205 262.3719 15.01955166519508
Epoch (UTC): 28 June 2016 04:52:25
Eccentricity: 0.0041407
inclination: 97.5838°
perigee height: 532 km
apogee height: 589 km
right ascension of ascending node: 230.2422°
argument of perigee: 98.2205°
revolutions per day: 15.01955166
mean anomaly at epoch: 262.3719°
orbit number at epoch: 51950

The dashed part of the orbit path shows where the satellite is in the earth's shadow,  

DLR